Regional Weather Roundup
Issued by NWS

Home | Current Version | Previous Version | Graphics & Text | Print | Product List | Glossary On
Versions: 1 2 3 4 5 6 7 8 9 10 11 12 13 14 15 16 17 18 19 20 21 22 23 24 25 26 27 28 29 30 31 32 33 34 35 36 37 38 39 40 41 42 43 44 45 46 47 48 49 50
000
ASUS45 KBOU 051607
RWRCO

WEATHER ROUNDUP FOR COLORADO
NATIONAL WEATHER SERVICE DENVER/BOULDER CO
900 AM MST MON DEC 05 2016

NOTE: "FAIR" INDICATES FEW OR NO CLOUDS BELOW 12000 FEET WITH NO
SIGNIFICANT WEATHER AND/OR OBSTRUCTIONS TO VISIBILITY.

COZ001>005-013-030-031-051700-
...NORTHWEST COLORADO...

CITY           SKY/WX    TMP DP  RH WIND       PRES   REMARKS
CRAIG          NOT AVBL
HAYDEN         FAIR      25  16  68 NW21G28   29.78R WCI  10
MEEKER         NOT AVBL
MOUNT WERNER   NOT AVBL
STEAMBOAT SPGS NOT AVBL
WALDEN         NOT AVBL
$$

COZ006>008-011-051700-
...WEST CENTRAL VALLEYS...

CITY           SKY/WX    TMP DP  RH WIND       PRES   REMARKS
GRAND JUNCTION NOT AVBL
MONTROSE       NOT AVBL
EAGLE          PTSUNNY   32  18  55 CALM      29.79R
RIFLE          NOT AVBL
DELTA          NOT AVBL
NUCLA          FAIR      32  18  55 SE5       29.89S WCI  27
$$

COZ017>023-064>068-051700-
...SOUTHWEST COLORADO...

CITY           SKY/WX    TMP DP  RH WIND       PRES   REMARKS
DURANGO        NOT AVBL
CORTEZ         NOT AVBL
PAGOSA SPRINGS PTSUNNY   25  20  81 CALM      29.92S
TELLURIDE      PTSUNNY  N/A N/A N/A W10G16    29.89
WOLF CREEK PAS NOT AVBL
$$

COZ009-010-012-014-032>034-037-058>063-051700-
...CENTRAL COLORADO...

CITY           SKY/WX    TMP DP  RH WIND       PRES   REMARKS
ASPEN          NOT AVBL
BUENA VISTA    NOT AVBL
COPPER MTN     NOT AVBL
BERTHOUD PASS  NOT AVBL
COTTONWOOD PAS NOT AVBL
GUNNISON       FAIR      15   9  76 CALM      29.86R
KREMMLING      NOT AVBL
LEADVILLE      LGT SNOW  24  15  68 NW9       29.75R WCI  14
SALIDA         PTSUNNY   42  13  31 SW15G22   29.85R
SUNLIGHT       NOT AVBL
WILKERSON PASS NOT AVBL
$$

COZ069>075-051700-
...SAN LUIS VALLEY/SANGRE DE CRISTO MOUNTAINS...

CITY           SKY/WX    TMP DP  RH WIND       PRES   REMARKS
ALAMOSA        FAIR      16   9  74 NW3       29.84R
LA VETA PASS   NOT AVBL
SAGUACHE       NOT AVBL
$$

COZ035-036-038>040-051700-
...NORTHERN COLORADO FRONT RANGE...

CITY           SKY/WX    TMP DP  RH WIND       PRES   REMARKS
DENVER INTL AP NOT AVBL
DMNS CITY PARK   N/A     53  22  30 W12G21    29.62R
AURORA         MOSUNNY   47  21  35 N9        29.62R
FRONT RANGE AP MOSUNNY   45  21  39 NW5       29.62R
ERIE MUNI ARPT NOT AVBL
BOULDER MUN AP NOT AVBL
CENTENNIAL     NOT AVBL
BROOMFIELD     PTSUNNY   52  21  30 W16G22    29.63R
FORT COLLINS   FAIR      46  23  39 W7        29.61R
LONGMONT       NOT AVBL
$$

COZ041-046-047-076>085-087-088-051700-
...PIKES PEAK/PALMER DIVIDE AND SOUTHERN FOOTHILLS...

CITY           SKY/WX    TMP DP  RH WIND       PRES   REMARKS
COLO. SPRINGS  FAIR      48  14  25 E14       29.64R
A. F. ACADEMY  FAIR      48  14  25 W24G39    29.61S
SCHRIEVER AFB  NOT AVBL
ELLICOTT       FAIR     N/A N/A N/A CALM      29.62R
FALCON         FAIR      48  13  24 W16G26    29.66R
FORT CARSON    FAIR      44  16  31 N7        29.61R
LIMON          FAIR      47  19  33 NW8       29.60R
MONUMENT HILL  NOT AVBL
TRINIDAD       FAIR      42  15  33 W7        29.66F
$$

COZ042>045-048>051-090-091-051700-
...NORTHEAST COLORADO...

CITY           SKY/WX    TMP DP  RH WIND       PRES   REMARKS
GREELEY ARPT   FAIR      49  23  36 W21G32    29.59R
AKRON          NOT AVBL
BURLINGTON     NOT AVBL
WRAY           PTSUNNY   37  21  52 SW3       29.60R
STERLING       NOT AVBL
HOLYOKE        NOT AVBL
FORT MORGAN    NOT AVBL
$$

COZ086-089-092>099-051700-
...SOUTHEAST COLORADO...

CITY           SKY/WX    TMP DP  RH WIND       PRES   REMARKS
PUEBLO         NOT AVBL
LA JUNTA       NOT AVBL
LAMAR          NOT AVBL
SPRINGFIELD      N/A     53  20  27 SW6       29.59F
$$



USA.gov is the U.S. government's official web portal to all federal, state and local government web resources and services.